Location: Feigenhofen
(48.4939°N, 10.7793°E)
Time: 15:03:12
(UTC+00:00)

Nadezhda 1 Rocket - Pass Details

Date: 26 May 2022
Orbit: 940 x 1006 km, 83.0° (Epoch: 29 June)

Event Time Altitude Azimuth Distance (km) Brightness Sun altitude
Exits shadow 02:15:04 11° 209° (SSW) 2,713 5.7 -9.5°
Maximum altitude 02:21:06 53° 284° (WNW) 1,210 4.4 -8.8°
Drops below altitude 10° 02:27:15 10° 1° (N) 2,744 7.1 -8.1°
Sets 02:29:51 0° 7° (N) 3,686 7.9 -7.8°
